GW3504 Weather Reports


time (UTC)temp
C
wind
direction
speed
KPH
gust
KPH
rain 1hr
cm
rain 24hr
cm
rain mn
cm
humidity
%
barometer
mb
20260902150526 30 165 4.8 19.3 0.00 0.00 0.00 61 1016.1
20260902150047 29 0 3.2 19.3 0.00 0.00 0.00 62 1016.1
20260902145524 29 154 6.4 17.7 0.00 0.00 0.00 62 1016.1
20260902145026 28 194 4.8 24.1 0.00 0.00 0.00 63 1016.1
20260902144545 28 167 3.2 24.1 0.00 0.00 0.00 63 1016.0
20260902144024 28 162 1.6 17.7 0.00 0.00 0.00 64 1016.1
20260902143525 28 165 4.8 22.5 0.00 0.00 0.00 64 1016.1
20260902143044 28 165 4.8 22.5 0.00 0.00 0.00 63 1016.2
20260902142524 28 0 1.6 20.9 0.00 0.00 0.00 63 1016.3
20260902142024 28 166 4.8 14.5 0.00 0.00 0.00 63 1016.3
20260902141539 28 195 3.2 14.5 0.00 0.00 0.00 63 1016.3
20260902141027 27 138 1.6 17.7 0.00 0.00 0.00 64 1016.3
20260902140523 27 247 3.2 19.3 0.00 0.00 0.00 65 1016.2
20260902140044 27 175 3.2 19.3 0.00 0.00 0.00 66 1016.3
20260902135524 27 188 4.8 17.7 0.00 0.00 0.00 66 1016.3
20260902135025 26 155 4.8 16.1 0.00 0.00 0.00 67 1016.2
20260902134552 26 180 1.6 14.5 0.00 0.00 0.00 68 1016.2
20260902134025 26 182 3.2 14.5 0.00 0.00 0.00 68 1016.3
20260902133524 26 150 3.2 11.3 0.00 0.00 0.00 69 1016.3
20260902133047 25 166 1.6 11.3 0.00 0.00 0.00 69 1016.3
20260902132525 25 168 3.2 11.3 0.00 0.00 0.00 70 1016.3
20260902132027 25 152 4.8 9.7 0.00 0.00 0.00 69 1016.2
20260902131545 25 190 3.2 12.9 0.00 0.00 0.00 70 1016.2
20260902131025 25 169 3.2 12.9 0.00 0.00 0.00 70 1016.1
20260902130526 25 147 1.6 12.9 0.00 0.00 0.00 70 1016.1
20260902130043 25 159 4.8 12.9 0.00 0.00 0.00 71 1016.1
20260902125529 24 169 1.6 8.0 0.00 0.00 0.00 72 1016.0
20260902125025 24 163 1.6 11.3 0.00 0.00 0.00 72 1015.9
20260902124548 24 132 1.6 11.3 0.00 0.00 0.00 73 1015.9
20260902124022 24 0 1.6 8.0 0.00 0.00 0.00 73 1015.8
20260902123524 23 178 0.0 9.7 0.00 0.00 0.00 73 1015.8
20260902123053 23 184 3.2 9.7 0.00 0.00 0.00 73 1015.8
20260902122527 23 184 1.6 9.7 0.00 0.00 0.00 73 1015.7
20260902122026 23 0 1.6 12.9 0.00 0.00 0.00 73 1015.7
20260902121544 23 0 0.0 12.9 0.00 0.00 0.00 73 1015.7
20260902121025 23 157 0.0 6.4 0.00 0.00 0.00 73 1015.7
20260902120526 23 180 0.0 6.4 0.00 0.00 0.00 73 1015.5
20260902120053 23 0 1.6 8.0 0.00 0.00 0.00 72 1015.6
20260902115524 23 0 1.6 8.0 0.00 0.00 0.00 72 1015.6
20260902115024 23 160 3.2 8.0 0.00 0.00 0.00 71 1015.5
20260902114546 24 0 0.0 8.0 0.00 0.00 0.00 71 1015.5
20260902114023 24 0 1.6 8.0 0.00 0.00 0.00 71 1015.4
20260902113524 24 148 1.6 9.7 0.00 0.00 0.00 70 1015.4
20260902113044 24 161 3.2 11.3 0.00 0.00 0.00 70 1015.5
20260902112527 24 169 4.8 11.3 0.00 0.00 0.00 70 1015.4
20260902112024 24 0 3.2 8.0 0.00 0.00 0.00 70 1015.4
20260902111540 24 185 1.6 8.0 0.00 0.00 0.00 70 1015.4
20260902111026 24 161 0.0 9.7 0.00 0.00 0.00 69 1015.4
20260902110527 24 160 1.6 9.7 0.00 0.00 0.00 69 1015.3
20260902110047 24 0 3.2 9.7 0.00 0.00 0.00 69 1015.3
20260902105525 24 169 1.6 8.0 0.00 0.00 0.00 69 1015.3
20260902105023 25 0 3.2 14.5 0.00 0.00 0.00 69 1015.3
20260902104542 25 0 3.2 14.5 0.00 0.00 0.00 68 1015.3
20260902104025 25 0 3.2 9.7 0.00 0.00 0.00 67 1015.2
20260902103525 25 175 1.6 9.7 0.00 0.00 0.00 67 1015.3
20260902103040 25 160 1.6 6.4 0.00 0.00 0.00 67 1015.2
20260902102530 25 0 0.0 4.8 0.00 0.00 0.00 66 1015.2
20260902102027 25 0 1.6 8.0 0.00 0.00 0.00 66 1015.1
20260902101547 25 0 0.0 11.3 0.00 0.00 0.00 65 1015.3
20260902101026 25 0 1.6 12.9 0.00 0.00 0.00 65 1015.1
20260902100526 25 168 3.2 12.9 0.00 0.00 0.00 65 1015.1
20260902100047 25 171 3.2 12.9 0.00 0.00 0.00 65 1015.0
20260902095526 25 179 1.6 11.3 0.00 0.00 0.00 66 1015.1
20260902095023 25 180 0.0 11.3 0.00 0.00 0.00 66 1015.1
20260902094545 25 165 1.6 6.4 0.00 0.00 0.00 66 1015.0
20260902094024 25 0 0.0 3.2 0.00 0.00 0.00 65 1014.9
20260902093524 25 0 0.0 6.4 0.00 0.00 0.00 65 1015.0
20260902093057 25 0 1.6 8.0 0.00 0.00 0.00 64 1014.9
20260902092524 26 166 1.6 12.9 0.00 0.00 0.00 63 1015.0
20260902092027 26 165 1.6 12.9 0.00 0.00 0.00 62 1014.9
20260902091546 26 148 1.6 8.0 0.00 0.00 0.00 62 1015.0
20260902091023 26 148 1.6 6.4 0.00 0.00 0.00 62 1014.8
20260902090531 26 245 0.0 8.0 0.00 0.00 0.00 60 1014.5
20260902090045 26 246 0.0 8.0 0.00 0.00 0.00 60 1014.5
20260902085525 27 156 0.0 11.3 0.00 0.00 0.00 59 1014.6
20260902085025 27 170 0.0 11.3 0.00 0.00 0.00 59 1014.5
20260902084546 27 0 1.6 11.3 0.00 0.00 0.00 58 1014.4
20260902084024 27 0 3.2 14.5 0.00 0.00 0.00 58 1014.5
20260902083526 27 0 4.8 14.5 0.00 0.00 0.00 58 1014.5
20260902083041 27 161 4.8 14.5 0.00 0.00 0.00 58 1014.3
20260902082524 27 165 1.6 9.7 0.00 0.00 0.00 58 1014.2
20260902082023 27 149 1.6 9.7 0.00 0.00 0.00 58 1014.2
20260902081547 27 0 0.0 8.0 0.00 0.00 0.00 57 1014.3
20260902081023 27 179 0.0 9.7 0.00 0.00 0.00 57 1014.2
20260902080523 27 0 3.2 9.7 0.00 0.00 0.00 57 1014.2
20260902080046 27 0 1.6 6.4 0.00 0.00 0.00 57 1014.2
20260902075525 27 274 0.0 6.4 0.00 0.00 0.00 56 1014.3
20260902075025 27 0 0.0 16.1 0.00 0.00 0.00 56 1014.2
20260902074554 28 188 0.0 16.1 0.00 0.00 0.00 56 1014.2
20260902074024 28 171 1.6 12.9 0.00 0.00 0.00 55 1014.1
20260902073524 28 272 3.2 12.9 0.00 0.00 0.00 55 1014.2
20260902073040 28 208 1.6 17.7 0.00 0.00 0.00 55 1014.2
20260902072523 28 163 3.2 17.7 0.00 0.00 0.00 55 1014.2
20260902072024 28 0 4.8 12.9 0.00 0.00 0.00 55 1014.3
20260902071543 28 210 1.6 22.5 0.00 0.00 0.00 55 1014.2
20260902071024 28 186 3.2 22.5 0.00 0.00 0.00 55 1014.3
20260902070525 28 181 4.8 19.3 0.00 0.00 0.00 55 1014.4
20260902070047 27 0 3.2 14.5 0.00 0.00 0.00 56 1014.3
20260902065525 27 205 1.6 14.5 0.00 0.00 0.00 58 1014.3
20260902065026 27 211 1.6 16.1 0.00 0.00 0.00 59 1014.3
20260902064545 26 0 1.6 16.1 0.00 0.00 0.00 60 1014.4
20260902064023 26 186 1.6 9.7 0.00 0.00 0.00 61 1014.5
20260902063524 26 0 0.0 3.2 0.00 0.00 0.00 61 1014.5
20260902063046 26 0 0.0 3.2 0.00 0.00 0.00 60 1014.5
20260902062525 26 0 0.0 4.8 0.00 0.00 0.00 60 1014.4
20260902062023 26 0 0.0 4.8 0.00 0.00 0.00 59 1014.5
20260902061558 26 0 0.0 1.6 0.00 0.00 0.00 59 1014.4
20260902061025 27 0 0.0 1.6 0.00 0.00 0.00 59 1014.3
20260902060523 27 0 0.0 3.2 0.00 0.00 0.00 59 1014.4
20260902060055 27 0 0.0 3.2 0.00 0.00 0.00 58 1014.5
20260902055524 27 0 0.0 6.4 0.00 0.00 0.00 58 1014.4
20260902055025 27 0 0.0 6.4 0.00 0.00 0.00 58 1014.5
20260902054608 27 0 0.0 6.4 0.00 0.00 0.00 57 1014.5
20260902054024 27 0 0.0 6.4 0.00 0.00 0.00 57 1014.6
20260902053524 27 180 0.0 4.8 0.00 0.00 0.00 56 1014.4
20260902053100 28 0 0.0 3.2 0.00 0.00 0.00 55 1014.5
20260902052521 28 0 0.0 4.8 0.00 0.00 0.00 55 1014.5
20260902052024 28 0 0.0 6.4 0.00 0.00 0.00 54 1014.4
20260902051542 28 225 0.0 8.0 0.00 0.00 0.00 54 1014.4
20260902051028 28 168 0.0 8.0 0.00 0.00 0.00 54 1014.5
20260902050524 28 0 1.6 11.3 0.00 0.00 0.00 54 1014.5
20260902050042 28 173 1.6 11.3 0.00 0.00 0.00 54 1014.5
20260902045523 28 186 3.2 11.3 0.00 0.00 0.00 53 1014.5
20260902045024 28 217 1.6 9.7 0.00 0.00 0.00 53 1014.5
20260902044552 28 0 0.0 11.3 0.00 0.00 0.00 53 1014.5
20260902044024 28 211 1.6 12.9 0.00 0.00 0.00 53 1014.5
20260902043525 28 162 3.2 12.9 0.00 0.00 0.00 53 1014.5
20260902043046 28 165 3.2 16.1 0.00 0.00 0.00 53 1014.4
20260902042525 28 208 3.2 16.1 0.00 0.00 0.00 53 1014.4
20260902042024 28 0 3.2 9.7 0.00 0.00 0.00 53 1014.5
20260902041541 28 165 1.6 11.3 0.00 0.00 0.00 53 1014.5
20260902041025 28 0 1.6 11.3 0.00 0.00 0.00 53 1014.5
20260902040524 28 176 0.0 11.3 0.00 0.00 0.00 53 1014.5
20260902040048 28 173 0.0 8.0 0.00 0.00 0.00 53 1014.6
20260902035523 28 0 3.2 9.7 0.00 0.00 0.00 53 1014.7
20260902035025 29 171 1.6 12.9 0.00 0.00 0.00 52 1014.7
20260902034548 29 153 4.8 12.9 0.00 0.00 0.00 52 1014.6
20260902034025 29 156 4.8 12.9 0.00 0.00 0.00 51 1014.6
20260902033523 29 181 3.2 14.5 0.00 0.00 0.00 51 1014.6
20260902033047 29 170 4.8 16.1 0.00 0.00 0.00 51 1014.6
20260902032524 29 169 3.2 16.1 0.00 0.00 0.00 51 1014.6
20260902032023 29 162 3.2 14.5 0.00 0.00 0.00 51 1014.5
20260902031547 29 173 4.8 12.9 0.00 0.00 0.00 52 1014.4
20260902031025 29 157 1.6 9.7 0.00 0.00 0.00 52 1014.5
20260902030525 29 0 0.0 9.7 0.00 0.00 0.00 52 1014.4
20260902030042 29 160 1.6 6.4 0.00 0.00 0.00 52 1014.3
20260902025525 29 182 1.6 6.4 0.00 0.00 0.00 52 1014.1
20260902025023 29 166 0.0 8.0 0.00 0.00 0.00 52 1014.1
20260902024548 30 0 1.6 8.0 0.00 0.00 0.00 52 1014.0
20260902024023 30 166 0.0 8.0 0.00 0.00 0.00 52 1014.0
20260902023523 30 156 1.6 8.0 0.00 0.00 0.00 51 1014.1
20260902023055 30 132 0.0 6.4 0.00 0.00 0.00 51 1014.1
20260902022525 30 178 0.0 4.8 0.00 0.00 0.00 51 1014.1
20260902022025 30 0 0.0 4.8 0.00 0.00 0.00 51 1014.0
20260902021545 30 172 0.0 4.8 0.00 0.00 0.00 50 1014.1
20260902021024 30 153 0.0 4.8 0.00 0.00 0.00 50 1014.0
20260902020524 30 0 0.0 8.0 0.00 0.00 0.00 49 1014.0
20260902020042 30 0 0.0 8.0 0.00 0.00 0.00 49 1014.0
20260902015526 30 0 0.0 8.0 0.00 0.00 0.00 49 1013.9
20260902015024 31 0 0.0 6.4 0.00 0.00 0.00 48 1013.9
20260902014540 31 169 0.0 6.4 0.00 0.00 0.00 48 1013.8
20260902014027 31 169 0.0 6.4 0.00 0.00 0.00 48 1013.7
20260902013524 31 172 0.0 6.4 0.00 0.00 0.00 48 1013.7
20260902013053 31 0 0.0 6.4 0.00 0.00 0.00 47 1013.7
20260902012524 31 0 0.0 3.2 0.00 0.00 0.00 47 1013.6
20260902012024 31 0 0.0 4.8 0.00 0.00 0.00 47 1013.6
20260902011547 31 0 0.0 4.8 0.00 0.00 0.00 46 1013.7
20260902011024 32 0 0.0 4.8 0.00 0.00 0.00 46 1013.7
20260902010525 32 165 0.0 4.8 0.00 0.00 0.00 45 1013.6
20260902010045 32 0 0.0 4.8 0.00 0.00 0.00 45 1013.6
20260902005525 32 168 0.0 1.6 0.00 0.00 0.00 45 1013.6
20260902005024 32 0 0.0 3.2 0.00 0.00 0.00 45 1013.5
20260902004546 32 0 0.0 4.8 0.00 0.00 0.00 44 1013.7
20260902004024 33 168 0.0 6.4 0.00 0.00 0.00 44 1013.6
20260902003524 33 0 0.0 6.4 0.00 0.00 0.00 43 1013.6
20260902003043 33 0 0.0 8.0 0.00 0.00 0.00 43 1013.7
20260902002522 33 0 0.0 8.0 0.00 0.00 0.00 42 1013.6
20260902002025 34 187 0.0 8.0 0.00 0.00 0.00 41 1013.8
20260902001602 34 0 1.6 6.4 0.00 0.00 0.00 40 1013.7
20260902001023 34 176 0.0 8.0 0.00 0.00 0.00 40 1013.8
20260902000523 35 148 1.6 8.0 0.00 0.00 0.00 40 1013.7
20260902000045 35 0 1.6 8.0 0.00 0.00 0.00 39 1013.7
20260901235525 35 165 1.6 12.9 0.00 0.00 0.00 38 1013.8
20260901235027 35 158 0.0 12.9 0.00 0.00 0.00 38 1013.8
20260901234541 35 158 1.6 12.9 0.00 0.00 0.00 38 1013.8
20260901234025 35 174 3.2 12.9 0.00 0.00 0.00 37 1013.9
20260901233525 35 178 3.2 8.0 0.00 0.00 0.00 37 1013.8
20260901233055 35 0 1.6 9.7 0.00 0.00 0.00 37 1013.8
20260901232527 35 155 1.6 11.3 0.00 0.00 0.00 36 1013.8
20260901232027 36 183 6.4 11.3 0.00 0.00 0.00 35 1013.9
20260901231548 36 148 3.2 12.9 0.00 0.00 0.00 35 1013.8
20260901231026 36 178 3.2 12.9 0.00 0.00 0.00 35 1013.9
20260901230526 36 169 3.2 12.9 0.00 0.00 0.00 34 1013.9
20260901230046 36 187 1.6 11.3 0.00 0.00 0.00 34 1013.8
20260901225524 36 143 3.2 11.3 0.00 0.00 0.00 34 1013.9
20260901225024 36 173 4.8 14.5 0.00 0.00 0.00 33 1013.9
20260901224549 36 156 3.2 19.3 0.00 0.00 0.00 33 1013.9
20260901224028 36 206 3.2 24.1 0.00 0.00 0.00 33 1013.9
20260901223527 36 277 8.0 24.1 0.00 0.00 0.00 33 1013.9
20260901223051 36 88 4.8 11.3 0.00 0.00 0.00 33 1013.8
20260901222525 36 163 3.2 22.5 0.00 0.00 0.00 34 1013.9
20260901222023 36 125 1.6 22.5 0.00 0.00 0.00 34 1013.9
20260901221558 37 167 3.2 16.1 0.00 0.00 0.00 34 1013.8
20260901221024 36 0 4.8 17.7 0.00 0.00 0.00 34 1013.8
20260901220528 36 250 3.2 20.9 0.00 0.00 0.00 34 1013.9
20260901220052 36 180 6.4 20.9 0.00 0.00 0.00 34 1013.8
20260901215527 37 169 4.8 25.7 0.00 0.00 0.00 33 1013.8
20260901215026 36 157 3.2 25.7 0.00 0.00 0.00 34 1013.9
20260901214551 36 155 4.8 24.1 0.00 0.00 0.00 34 1013.9
20260901214025 36 159 4.8 19.3 0.00 0.00 0.00 34 1013.9
20260901213525 36 158 3.2 29.0 0.00 0.00 0.00 34 1013.8
20260901213048 37 314 3.2 29.0 0.00 0.00 0.00 33 1014.0
20260901212526 37 175 8.0 29.0 0.00 0.00 0.00 32 1014.0
20260901212025 37 242 4.8 19.3 0.00 0.00 0.00 33 1014.0
20260901211547 37 226 6.4 17.7 0.00 0.00 0.00 32 1014.0
20260901211026 37 173 8.0 17.7 0.00 0.00 0.00 32 1014.1
20260901210527 37 196 4.8 16.1 0.00 0.00 0.00 31 1014.1
20260901210044 37 0 4.8 25.7 0.00 0.00 0.00 31 1014.2
20260901205527 37 274 6.4 25.7 0.00 0.00 0.00 31 1014.3
20260901205029 37 188 9.7 27.4 0.00 0.00 0.00 30 1014.3
20260901204549 37 51 8.0 27.4 0.00 0.00 0.00 30 1014.5
20260901204025 37 15 4.8 17.7 0.00 0.00 0.00 31 1014.5
20260901203526 37 30 4.8 19.3 0.00 0.00 0.00 32 1014.7
20260901203047 37 196 3.2 27.4 0.00 0.00 0.00 33 1014.8
20260901202525 37 173 8.0 27.4 0.00 0.00 0.00 33 1014.9
20260901202026 37 167 8.0 20.9 0.00 0.00 0.00 31 1014.9
20260901201546 37 225 4.8 22.5 0.00 0.00 0.00 31 1015.0
20260901201026 37 163 4.8 22.5 0.00 0.00 0.00 31 1015.0
20260901200524 37 169 3.2 20.9 0.00 0.00 0.00 30 1015.0
20260901200048 37 258 4.8 24.1 0.00 0.00 0.00 30 1015.0
20260901195524 37 202 4.8 24.1 0.00 0.00 0.00 30 1015.1
20260901195024 37 336 6.4 24.1 0.00 0.00 0.00 31 1015.1
20260901194550 37 205 6.4 19.3 0.00 0.00 0.00 31 1015.2
20260901194028 37 301 3.2 24.1 0.00 0.00 0.00 31 1015.2
20260901193524 37 76 8.0 24.1 0.00 0.00 0.00 31 1015.2
20260901193048 37 196 6.4 24.1 0.00 0.00 0.00 30 1015.3
20260901192525 37 105 4.8 24.1 0.00 0.00 0.00 30 1015.3
20260901192023 37 152 6.4 24.1 0.00 0.00 0.00 33 1015.4
20260901191600 37 192 4.8 24.1 0.00 0.00 0.00 34 1015.4
20260901191025 37 92 3.2 16.1 0.00 0.00 0.00 35 1015.4
20260901190528 37 176 4.8 16.1 0.00 0.00 0.00 35 1015.5
20260901190048 37 158 6.4 16.1 0.00 0.00 0.00 37 1015.6
20260901185528 37 293 3.2 17.7 0.00 0.00 0.00 37 1015.5
20260901185027 37 290 3.2 17.7 0.00 0.00 0.00 37 1015.6
20260901184547 37 178 3.2 16.1 0.00 0.00 0.00 36 1015.6
20260901184026 37 308 1.6 16.1 0.00 0.00 0.00 36 1015.6
20260901183527 36 278 6.4 20.9 0.00 0.00 0.00 36 1015.7
20260901183051 36 150 4.8 20.9 0.00 0.00 0.00 36 1015.8
20260901182524 36 165 6.4 20.9 0.00 0.00 0.00 36 1015.8
20260901182027 36 134 4.8 16.1 0.00 0.00 0.00 38 1015.9
20260901181558 36 227 1.6 16.1 0.00 0.00 0.00 38 1016.0
20260901181025 36 259 3.2 11.3 0.00 0.00 0.00 38 1016.1
20260901180524 36 301 3.2 16.1 0.00 0.00 0.00 39 1016.1
20260901180046 36 194 4.8 17.7 0.00 0.00 0.00 40 1016.2
20260901175529 35 221 3.2 19.3 0.00 0.00 0.00 40 1016.3
20260901175027 35 135 3.2 19.3 0.00 0.00 0.00 40 1016.3
20260901174548 36 286 3.2 16.1 0.00 0.00 0.00 38 1016.4
20260901174027 36 0 4.8 16.1 0.00 0.00 0.00 39 1016.4
20260901173528 35 0 3.2 14.5 0.00 0.00 0.00 40 1016.6
20260901173059 35 113 3.2 19.3 0.00 0.00 0.00 40 1016.6
20260901172525 35 275 1.6 19.3 0.00 0.00 0.00 39 1016.6
20260901172030 36 241 1.6 12.9 0.00 0.00 0.00 41 1016.7
20260901171600 35 142 0.0 19.3 0.00 0.00 0.00 40 1016.8
20260901171024 35 280 1.6 19.3 0.00 0.00 0.00 40 1016.8
20260901170527 35 314 3.2 17.7 0.00 0.00 0.00 40 1016.8
20260901170047 35 0 1.6 17.7 0.00 0.00 0.00 40 1016.8
20260901165529 35 144 3.2 12.9 0.00 0.00 0.00 43 1016.8
20260901165024 35 171 1.6 20.9 0.00 0.00 0.00 42 1016.8
20260901164546 34 0 3.2 20.9 0.00 0.00 0.00 42 1016.8
20260901164024 33 0 4.8 20.9 0.00 0.00 0.00 44 1016.8
20260901163531 33 178 6.4 17.7 0.00 0.00 0.00 43 1016.8
20260901163052 33 182 3.2 19.3 0.00 0.00 0.00 44 1016.8
20260901162526 33 341 3.2 19.3 0.00 0.00 0.00 45 1016.9
20260901162030 33 139 3.2 19.3 0.00 0.00 0.00 46 1016.9
20260901161605 33 178 4.8 19.3 0.00 0.00 0.00 46 1016.9
20260901161028 32 42 1.6 20.9 0.00 0.00 0.00 47 1017.0
20260901160531 32 155 3.2 20.9 0.00 0.00 0.00 46 1016.9
20260901160050 32 167 6.4 16.1 0.00 0.00 0.00 47 1017.0
20260901155524 32 0 3.2 19.3 0.00 0.00 0.00 48 1017.1
20260901155027 32 163 8.0 19.3 0.00 0.00 0.00 48 1017.1
20260901154555 32 183 3.2 16.1 0.00 0.00 0.00 48 1017.0
20260901154027 31 0 3.2 16.1 0.00 0.00 0.00 50 1017.1
20260901153527 31 238 1.6 19.3 0.00 0.00 0.00 51 1017.1
20260901153050 31 163 3.2 19.3 0.00 0.00 0.00 53 1017.2
20260901152524 30 169 3.2 16.1 0.00 0.00 0.00 53 1017.2
20260901152028 30 120 3.2 16.1 0.00 0.00 0.00 55 1017.1
20260901151542 30 164 3.2 12.9 0.00 0.00 0.00 54 1017.1
20260901151030 30 169 4.8 16.1 0.00 0.00 0.00 54 1017.1